Simultaneous Nadir Overpasses (SNOs) Predictions

Prediction of SNOs between NOAA-19 and NPP Satellite Orbit:

Table of predicted SNOs for the next 14.0 days since TLE Epoch: 10/26/2015
Index Date (NOAA-19) Time (NOAA-19) Lat,Lon (NOAA-19) SZA (NOAA-19 ) Date (NPP) Time (NPP) Lat,Lon (NPP) SZA (NPP ) Distance(km) Time Diff (sec)
1 11/06/2015 08:51:32 -81.04, 173.89 80.08 11/06/2015 08:52:40 -81.04, 173.95 80.11 1.15 68
2 11/06/2015 09:42:36 81.04, -18.70 99.92 11/06/2015 09:43:25 81.05, -18.88 99.92 3.21 49
3 11/06/2015 10:33:34 -81.04, 148.54 80.07 11/06/2015 10:34:10 -81.04, 148.52 80.08 0.76 36
4 11/06/2015 11:24:38 81.04, -44.05 99.92 11/06/2015 11:24:54 81.03, -43.94 99.90 1.98 16
5 11/06/2015 12:15:35 -81.04, 123.57 80.12 11/06/2015 12:15:39 -81.03, 123.45 80.11 2.07 4
6 11/06/2015</
